TimeEDT,TemperatureF,Dew PointF,Humidity,Sea Level PressureIn,VisibilityMPH,Wind Direction,Wind SpeedMPH,Gust SpeedMPH,PrecipitationIn,Events,Conditions,WindDirDegrees,DateUTC
12:54 AM,63.0,61.0,93,30.09,10.0,Calm,Calm,-,N/A,,Clear,0,2013-09-20 04:54:00
1:54 AM,64.9,62.1,90,30.09,10.0,Calm,Calm,-,N/A,,Overcast,0,2013-09-20 05:54:00
2:54 AM,64.9,62.1,90,30.09,10.0,Calm,Calm,-,N/A,,Overcast,0,2013-09-20 06:54:00
3:54 AM,64.9,63.0,93,30.08,10.0,Calm,Calm,-,N/A,,Overcast,0,2013-09-20 07:54:00
4:54 AM,64.9,62.1,90,30.08,10.0,Calm,Calm,-,N/A,,Scattered Clouds,0,2013-09-20 08:54:00
5:54 AM,63.0,60.1,90,30.07,10.0,Calm,Calm,-,N/A,,Partly Cloudy,0,2013-09-20 09:54:00
6:54 AM,62.1,60.1,93,30.09,10.0,Calm,Calm,-,N/A,Fog,Shallow Fog,0,2013-09-20 10:54:00
7:54 AM,63.0,62.1,97,30.09,10.0,Calm,Calm,-,N/A,Fog,Shallow Fog,0,2013-09-20 11:54:00
9:54 AM,75.0,62.1,64,30.09,10.0,East,8.1,-,N/A,,Partly Cloudy,90,2013-09-20 13:54:00
10:54 AM,77.0,60.1,56,30.09,10.0,NNE,9.2,-,N/A,,Mostly Cloudy,30,2013-09-20 14:54:00
11:54 AM,77.0,54.0,45,30.08,10.0,ENE,8.1,-,N/A,,Mostly Cloudy,60,2013-09-20 15:54:00
12:54 PM,80.1,57.0,45,30.06,10.0,Variable,5.8,-,N/A,,Scattered Clouds,0,2013-09-20 16:54:00
1:54 PM,79.0,57.9,48,30.04,10.0,SSE,4.6,-,N/A,,Scattered Clouds,150,2013-09-20 17:54:00
2:54 PM,80.1,57.9,47,30.02,10.0,ENE,6.9,-,N/A,,Scattered Clouds,60,2013-09-20 18:54:00
3:54 PM,77.0,57.0,50,30.01,10.0,ENE,5.8,-,N/A,,Mostly Cloudy,60,2013-09-20 19:54:00
4:54 PM,75.9,60.1,58,30.01,10.0,East,8.1,-,N/A,,Mostly Cloudy,90,2013-09-20 20:54:00
5:54 PM,73.9,60.1,62,30.00,10.0,East,8.1,-,N/A,,Mostly Cloudy,90,2013-09-20 21:54:00
6:54 PM,71.1,62.1,73,29.99,10.0,ESE,4.6,-,N/A,,Mostly Cloudy,110,2013-09-20 22:54:00
7:54 PM,70.0,62.1,76,30.00,10.0,SE,3.5,-,N/A,,Mostly Cloudy,140,2013-09-20 23:54:00
8:54 PM,66.9,62.1,84,30.01,10.0,Calm,Calm,-,N/A,,Clear,0,2013-09-21 00:54:00
9:54 PM,66.0,62.1,87,30.01,10.0,Calm,Calm,-,N/A,,Clear,0,2013-09-21 01:54:00
10:54 PM,66.0,61.0,84,29.99,10.0,Calm,Calm,-,N/A,,Clear,0,2013-09-21 02:54:00
11:54 PM,64.9,60.1,84,29.99,10.0,Calm,Calm,-,N/A,,Scattered Clouds,0,2013-09-21 03:54:00